Regional Weather Roundup
Issued by NWS Green Bay, WI

Home | Current Version | Previous Version | Text Only | Print | Product List | Glossary On
Versions: 1 2 3 4 5 6 7 8 9 10 11 12 13 14 15 16 17 18 19 20 21 22 23 24 25 26 27 28 29 30 31 32 33 34 35 36 37 38 39 40 41 42 43 44 45 46 47 48 49 50
000
ASUS43 KGRB 282200
RWRGRB

NORTH-CENTRAL AND NORTHEAST WISCONSIN REGIONAL WEATHER ROUNDUP
NATIONAL WEATHER SERVICE GREEN BAY WI
500 PM CDT TUE JUL 28 2015

WIZ005-009-010>012-018-019-282300-
NORTH CENTRAL WISCONSIN

CITY           SKY/WX    TMP DP  RH WIND       PRES   REMARKS
IRONWOOD       PTSUNNY   84  68  58 S14       29.80S
MANITOWISH WTR NOT AVBL
ARBOR VITAE    NOT AVBL
EAGLE RIVER    NOT AVBL
LAND O LAKES   NOT AVBL
RHINELANDER    MOSUNNY   82  66  58 S13G18    29.92F
PHILLIPS       MOSUNNY   82  69  66 S13       29.87S
ANTIGO         NOT AVBL
TOMAHAWK       NOT AVBL
MERRILL        NOT AVBL
$$

WIZ013-073-282300-
NORTHEAST WISCONSIN

CITY           SKY/WX    TMP DP  RH WIND       PRES   REMARKS
IRON MOUNTAIN  PTSUNNY   84  63  49 S13G20    29.90F
MARINETTE      CLOUDY    81  61  50 S15       29.90S
$$

WIZ017-030-035>037-045-282300-
CENTRAL WISCONSIN

CITY           SKY/WX    TMP DP  RH WIND       PRES   REMARKS
MEDFORD        NOT AVBL
WAUSAU         PTSUNNY   83  67  58 S10       29.88F
MOSINEE        NOT AVBL
MARSHFIELD       N/A     79  68  69 S9        29.90R
WISC RAPIDS    PTSUNNY   83  68  60 SW8       29.90S
STEVENS POINT  NOT AVBL
WAUPACA        NOT AVBL
SHAWANO        NOT AVBL
CLINTONVILLE   CLOUDY    86  64  48 S10       29.90S
$$

WIZ038-039-048-051-282300-
FOX VALLEY

CITY           SKY/WX    TMP DP  RH WIND       PRES   REMARKS
NWS GREEN BAY  PTSUNNY   84  68  58 SE13      29.91R
APPLETON       PTSUNNY   84  63  48 S8        29.91R
OSHKOSH        CLOUDY    84  67  56 SE12      29.89R
FOND DU LAC    CLOUDY    83  67  58 SE9       29.91R
$$

WIZ022-050-052-282300-
EAST CENTRAL WISCONSIN

CITY           SKY/WX    TMP DP  RH WIND       PRES   REMARKS
STURGEON BAY   PTSUNNY   79  61  53 S9G16     29.94S
MANITOWOC      NOT AVBL
SHEBOYGAN      CLOUDY    78  66  66 S10       29.92R
$$

LMZ563-521-522-541>543-282300-
LAKESHORE

STATION/POSITION TIME  TEMP    WIND        PRES    VSBY  WAVE
                       AIR SEA DIR/SP/G                  HT/PER
                 (UTC) (F)     (DEG/KT/KT) (MB)    (MI)  (FT/S)
KEWAUNEE LKSHORE 2100   68     170/  4/  5 1012.8F
ALGOMA MARINA    2112          190/  5/  8   N/A
NORTHPORT PIER   2100   75     140/  9/ 13 1013.5F
N MID LAKE BUOY  2050   72 71  150/  6/  6 1013.7F         1
S GREEN BAY BUOY 2100   80 76  150/ 12/ 14 1013.7F
SISTER BAY LKSHO 2129   81     160/ 12/ 16   N/A
CHAMBERS ISLAND  2100   81     130/  5/ 11 1012.9F
MENOMINEE LKSHOR 2100   75     140/  9/ 10 1013.6F
$$



USA.gov is the U.S. government's official web portal to all federal, state and local government web resources and services.